Zurück zum Katalog

HULIANWANG DIGUI-141

AktivKommunikationLEO
NORAD 67439·PAYLOAD·🇨🇳 China

Gestartet Jan 13, 2026 von Wenchang Space Launch Site

Loading…

Nächste Überflüge (nächste 24 Stunden)

TLE

AktuellSource: Space-Track

Epoche: Sep 14, 2026, 07:26 UTC

1 67439U 26007E   26257.31021237 -.00000080  00000-0  93905-4 0  9994
2 67439  50.0035 126.0950 0000435   0.4298 359.6575 13.29330350 32646

Verfolge HULIANWANG DIGUI-141 in Echtzeit mit AllMySat

Download on the App Store